TYVAK-0172 (46267 NORAD) Tracking and Keplerian Element Data

This shows tracking and keplerian element data for the satellite.

Feedback or suggestion? Click here.




ElementValue
Catalog46267
NameTYVAK-0172
Epoch Orbit348
Epoch Day267.48147185
Epoch Year2020
RAAN91.1528
Inclination97.873
Eccentricity0.0007813
Argument of Perigee77.6283
Mean Anonmoly282.5808
Mean Motion14.88169697
Decay Rate1.66E-06
L11 46267U 20059C 20267.48147185 .00000166 00000-0 23983-4 0 9998
L22 46267 97.8730 91.1528 0007813 77.6283 282.5808 14.88169697 3486

Live tracking and technical data element details for TYVAK-0172 (NORAD 46267). TYVAK-0172 can be tracked NOW for your location showing map with azimuth and elevation plus other details from your city location.

Track the satellite on the map from your city or location and see movement details for azimuth, elevation, latitude, longitude, range, height, and movement on the map or in text.







IsCatalogInMostPopularTable: catalog: 46267, numindb: 2
Update: records affected: 1



GetName: 46267 TYVAK-0172

Hit Count: updated at: Sat, 26 Sep 2020 14:17:56 GMT